Weather in Zabolottsy

Ukraine / Lviv District     50°01′50″N   24°58′29″E
temp.,
°C
wind,
m/s
gust,
m/s
humid.,
%
clouds,
%
prec.,
mm/h
press.,
hPa
HPBL,
m
4 july, mon
mon400:00+17sse00874 0.0 101811
03:00+16sw11880 0.0 101811
06:00+16s11894 0.0 101811
09:00+22wsw00680 0.0 1017359
12:00+26wnw12460 0.0 10171360
15:00+28wnw24390 0.0 10151895
18:00+28n544311 0.0 10151414
21:00+22ne22664 0.0 101519
5 july, tue
tue500:00+19se2268100 0.0 101611
03:00+18se007290 0.0 101711
06:00+17sse117317 0.0 101711
09:00+24nne22575 0.0 1017300
12:00+28ne344398 0.0 10161182
15:00+29ene443999 0.0 10151762
18:00+28ene784469 0.0 10131404
21:00+19nw71095100 1.2 1016256
6 july, wed
wed600:00+18ene5119578 1.1 1014236
03:00+17nnw1197100 2.1 101529
06:00+17nnw4799100 0.6 1015298
09:00+17wnw1197100 1.8 1015213
12:00+15nnw5898100 2.8 1016460
15:00+17n6886100 4.9 1018763
18:00+18n5672100 0.1 1018990
21:00+16n2479100 0.1 101890
7 july, thu
thu700:00+14nne1187100 0.0 101811
03:00+13sw119076 0.0 101911
06:00+13sw11905 0.0 101811
09:00+18w22705 0.0 1018439
12:00+23n12545 0.0 10171486
15:00+23nne3253100 0.1 10161226
18:00+21ene2265100 0.2 101636
21:00+19ese226794 0.2 101633
8 july, fri
fri800:00+16e127576 0.0 101711
03:00+16e227898 0.1 101711
06:00+15s019187 1.3 101711
09:00+18ese127761 1.9 1017229
12:00+22nne3364100 1.5 1017816
15:00+25ne4351100 2.2 10161514
18:00+23nne4656100 0.0 1016567
21:00+19nne4878100 0.7 1017279